This demonstration page uses our WeatherBlox Daily Observations layout. Learn more.

Left ArrowRight Arrow

31.84235, -102.49876

Hourly Observations for July 28, 2022

Temp ( °F °C ) Dew Point ( °F °C ) Humidity (%) Winds ( mph kmh ) Pressure ( in mb ) Visibility ( mi km ) Precip ( " mm )
12:53 am 00:53 Clear 86 30 57 13.9 37 37 SSW 15 24 29.86 1011 10 16 0.00 0.00
1:53 am 01:53 Clear 84 28.9 58 14.4 41 41 S 15 24 29.86 1011 10 16 0.00 0.00
2:53 am 02:53 Clear 83 28.3 58 14.4 43 43 S 12 19 29.85 1011 10 16 0.00 0.00
3:53 am 03:53 Clear 82 27.8 58 14.4 44 44 S 13 20 29.85 1011 10 16 0.00 0.00
4:53 am 04:53 Clear 80 26.7 59 15 49 49 S 8 13 29.84 1011 10 16 0.00 0.00
5:53 am 05:53 Clear 79 26.1 59 15 50 50 S 9 15 29.85 1011 10 16 0.00 0.00
6:53 am 06:53 Clear 78 25.6 60 15.6 54 54 S 9 15 29.87 1012 10 16 0.00 0.00
7:53 am 07:53 Sunny 77 25 63 17.2 62 62 S 13 20 29.90 1012 10 16 0.00 0.00
8:53 am 08:53 Sunny 79 26.1 64 17.8 60 60 S 13 20 29.90 1013 10 16 0.00 0.00
9:53 am 09:53 Sunny 83 28.3 63 17.2 51 51 S 9 15 29.91 1013 10 16 0.00 0.00
10:53 am 10:53 Sunny 86 30 62 16.7 45 45 S 13 20 29.91 1013 10 16 0.00 0.00
11:53 am 11:53 Sunny 89 31.7 61 16.1 39 39 VRB 7 11 29.90 1012 10 16 0.00 0.00
12:53 pm 12:53 Sunny 92 33.3 60 15.6 34 34 SE 15 24 29.88 1012 10 16 0.00 0.00
1:53 pm 13:53 Sunny 93 33.9 58 14.4 31 31 SE 8 13 29.87 1012 10 16 0.00 0.00
2:53 pm 14:53 Partly Cloudy 96 35.6 56 13.3 26 26 ESE 12 19 29.85 1011 10 16 0.00 0.00
3:53 pm 15:53 Mostly Sunny 96 35.6 56 13.3 26 26 ESE 15 24 29.83 1010 10 16 0.00 0.00
4:53 pm 16:53 Partly Cloudy 97 36.1 56 13.3 25 25 SE 16 26 29.80 1009 10 16 0.00 0.00
5:53 pm 17:53 Mostly Sunny 97 36.1 56 13.3 25 25 ESE 15 24 29.80 1009 10 16 0.00 0.00
6:53 pm 18:53 Mostly Sunny 97 36.1 55 12.8 24 24 SE 16 26 29.78 1008 10 16 0.00 0.00
7:53 pm 19:53 Sunny 95 35 55 12.8 26 26 SE 14 22 29.78 1009 10 16 0.00 0.00
8:53 pm 20:53 Clear 93 33.9 55 12.8 28 28 SE 14 22 29.80 1009 10 16 0.00 0.00
9:53 pm 21:53 Clear 92 33.3 56 13.3 30 30 SSE 15 24 29.82 1010 10 16 0.00 0.00
10:53 pm 22:53 Clear 90 32.2 58 14.4 34 34 S 14 22 29.85 1011 10 16 0.00 0.00
11:53 pm 23:53 Clear 88 31.1 58 14.4 36 36 S 14 22 29.86 1011 10 16 0.00 0.00

Powered by AerisWeather